VLO6024 SBPB-SBSP

Flight info

Callsign VLO6024
Flight time 2h 54m
Altitude FL340
Route 0318S04155W DALED UZ5 ANLAK UZ4 UKDAL UM654 DEVIR UZ2 ENTIT DOSP1B
Aircraft B703/H-VRDW/C

Departure

Time 2026-05-07 15:28
Airport Parnaíba - Prefeito Doutor João Silva Filho International Airport (SBPB)

Arrival

Time 2026-05-07 18:22
Airport Congonhas–Deputado Freitas Nobre Airport (SBSP)
Time Latitude Longitude Altitude Speed Heading
2026-05-07 15:12 -2.89453 -41.72970 20 ft 0 kts 163°
2026-05-07 15:15 -2.89451 -41.72971 20 ft 1 kts 163°
2026-05-07 15:15 -2.89429 -41.72974 20 ft 3 kts 220°
2026-05-07 15:15 -2.89426 -41.72970 20 ft 0 kts 252°
2026-05-07 15:18 -2.89427 -41.72974 20 ft 3 kts 252°
2026-05-07 15:18 -2.89439 -41.73010 20 ft 8 kts 252°
2026-05-07 15:19 -2.89413 -41.73069 20 ft 13 kts 341°
2026-05-07 15:19 -2.89357 -41.73139 19 ft 17 kts 249°
2026-05-07 15:19 -2.89400 -41.73271 19 ft 23 kts 253°
2026-05-07 15:19 -2.89448 -41.73438 19 ft 28 kts 254°
2026-05-07 15:20 -2.89505 -41.73636 19 ft 30 kts 254°
2026-05-07 15:20 -2.89556 -41.73811 18 ft 23 kts 253°
2026-05-07 15:20 -2.89595 -41.73943 18 ft 17 kts 253°
2026-05-07 15:20 -2.89625 -41.74031 18 ft 10 kts 234°
2026-05-07 15:21 -2.89661 -41.74058 19 ft 5 kts 226°
2026-05-07 15:21 -2.89649 -41.74074 18 ft 5 kts 24°
2026-05-07 15:21 -2.89621 -41.74032 18 ft 9 kts 76°
2026-05-07 15:21 -2.89611 -41.73994 18 ft 2 kts 72°
2026-05-07 15:22 -2.89610 -41.73991 18 ft 0 kts 72°
2026-05-07 15:27 -2.89609 -41.73988 18 ft 7 kts 72°
2026-05-07 15:27 -2.89524 -41.73703 19 ft 79 kts 73°
2026-05-07 15:28 -2.89297 -41.72948 18 ft 148 kts 73°
2026-05-07 15:28 -2.88974 -41.71804 372 ft 180 kts 75°
2026-05-07 15:28 -2.89057 -41.70553 902 ft 189 kts 113°
2026-05-07 15:28 -2.89943 -41.69588 1398 ft 195 kts 152°
2026-05-07 15:29 -2.91074 -41.69332 1823 ft 200 kts 184°
2026-05-07 15:29 -2.92381 -41.69771 2299 ft 190 kts 211°
2026-05-07 15:29 -2.93544 -41.70436 2813 ft 198 kts 210°
2026-05-07 15:29 -2.94760 -41.71144 3327 ft 205 kts 210°
2026-05-07 15:30 -2.96002 -41.71867 3829 ft 207 kts 210°
2026-05-07 15:30 -2.97253 -41.72596 4330 ft 209 kts 210°
2026-05-07 15:30 -2.98509 -41.73327 4829 ft 210 kts 210°
2026-05-07 15:30 -2.99791 -41.74073 5233 ft 222 kts 210°
2026-05-07 15:31 -3.01210 -41.74899 5518 ft 246 kts 210°
2026-05-07 15:31 -3.02761 -41.75802 5794 ft 270 kts 210°
2026-05-07 15:31 -3.04429 -41.76773 6168 ft 283 kts 210°
2026-05-07 15:31 -3.06146 -41.77773 6669 ft 287 kts 210°
2026-05-07 15:32 -3.07880 -41.78783 7171 ft 289 kts 210°
2026-05-07 15:32 -3.09620 -41.79796 7670 ft 291 kts 210°
2026-05-07 15:32 -3.11372 -41.80816 8170 ft 293 kts 210°
2026-05-07 15:32 -3.13151 -41.81853 8674 ft 295 kts 210°
2026-05-07 15:33 -3.14928 -41.82888 9174 ft 296 kts 210°
2026-05-07 15:33 -3.16716 -41.83929 9674 ft 298 kts 210°
2026-05-07 15:33 -3.18517 -41.84978 10174 ft 300 kts 210°
2026-05-07 15:33 -3.20328 -41.86033 10674 ft 305 kts 210°
2026-05-07 15:34 -3.22197 -41.87122 11184 ft 316 kts 210°
2026-05-07 15:34 -3.24138 -41.88252 11695 ft 328 kts 210°
2026-05-07 15:34 -3.26147 -41.89423 12205 ft 339 kts 210°
2026-05-07 15:34 -3.28220 -41.90630 12713 ft 350 kts 210°
2026-05-07 15:35 -3.30409 -41.91785 13222 ft 360 kts 204°
2026-05-07 15:35 -3.32726 -41.92818 13727 ft 368 kts 203°
2026-05-07 15:35 -3.35087 -41.93842 14326 ft 372 kts 203°
2026-05-07 15:35 -3.37476 -41.94875 14952 ft 375 kts 203°
2026-05-07 15:36 -3.39881 -41.95914 15577 ft 378 kts 203°
2026-05-07 15:36 -3.42324 -41.96970 16206 ft 381 kts 203°
2026-05-07 15:36 -3.44770 -41.98027 16831 ft 385 kts 203°
2026-05-07 15:36 -3.47240 -41.99095 17457 ft 388 kts 203°
2026-05-07 15:37 -3.49730 -42.00171 18083 ft 391 kts 203°
2026-05-07 15:37 -3.52236 -42.01254 18707 ft 394 kts 203°
2026-05-07 15:37 -3.54765 -42.02347 19333 ft 396 kts 203°
2026-05-07 15:37 -3.57294 -42.03441 19955 ft 398 kts 203°
2026-05-07 15:38 -3.59860 -42.04550 20583 ft 399 kts 203°
2026-05-07 15:38 -3.62412 -42.05653 21206 ft 400 kts 203°
2026-05-07 15:38 -3.64993 -42.06769 21835 ft 409 kts 203°
2026-05-07 15:38 -3.67624 -42.07923 22463 ft 417 kts 205°
2026-05-07 15:39 -3.70223 -42.09276 23093 ft 424 kts 208°
2026-05-07 15:39 -3.72817 -42.10712 23719 ft 430 kts 209°
2026-05-07 15:39 -3.75438 -42.12177 24345 ft 434 kts 209°
2026-05-07 15:39 -3.78104 -42.13671 24975 ft 437 kts 209°
2026-05-07 15:40 -3.80764 -42.15162 25599 ft 440 kts 209°
2026-05-07 15:40 -3.83435 -42.16659 26222 ft 441 kts 209°
2026-05-07 15:40 -3.86108 -42.18158 26843 ft 441 kts 209°
2026-05-07 15:40 -3.88795 -42.19664 27341 ft 444 kts 209°
2026-05-07 15:41 -3.91498 -42.21179 27719 ft 448 kts 209°
2026-05-07 15:41 -3.94225 -42.22708 28095 ft 451 kts 209°
2026-05-07 15:41 -3.96993 -42.24260 28473 ft 454 kts 209°
2026-05-07 15:41 -3.99753 -42.25808 28848 ft 456 kts 209°
2026-05-07 15:42 -4.02517 -42.27358 29221 ft 457 kts 209°
2026-05-07 15:42 -4.05298 -42.28918 29595 ft 457 kts 209°
2026-05-07 15:42 -4.08058 -42.30466 29967 ft 456 kts 209°
2026-05-07 15:42 -4.10821 -42.32015 30339 ft 455 kts 209°
2026-05-07 15:43 -4.13584 -42.33565 30711 ft 454 kts 209°
2026-05-07 15:43 -4.16352 -42.35118 31085 ft 453 kts 209°
2026-05-07 15:43 -4.19101 -42.36661 31458 ft 452 kts 209°
2026-05-07 15:43 -4.21838 -42.38196 31829 ft 451 kts 209°
2026-05-07 15:44 -4.24560 -42.39724 32200 ft 449 kts 209°
2026-05-07 15:44 -4.27286 -42.41253 32572 ft 448 kts 209°
2026-05-07 15:44 -4.29992 -42.42772 32943 ft 446 kts 209°
2026-05-07 15:44 -4.32696 -42.44289 33315 ft 445 kts 209°
2026-05-07 15:45 -4.35406 -42.45811 33620 ft 445 kts 209°
2026-05-07 15:45 -4.38109 -42.47328 33870 ft 446 kts 209°
2026-05-07 15:45 -4.40824 -42.48851 34120 ft 447 kts 209°
2026-05-07 15:45 -4.43527 -42.50369 34368 ft 448 kts 209°
2026-05-07 15:46 -4.49030 -42.53311 34866 ft 449 kts 207°
2026-05-07 15:46 -4.51790 -42.54725 35113 ft 449 kts 207°
2026-05-07 15:46 -4.54610 -42.56164 35365 ft 449 kts 207°
2026-05-07 15:47 -4.57396 -42.57585 35614 ft 449 kts 207°
2026-05-07 15:47 -4.60178 -42.59004 35862 ft 449 kts 207°
2026-05-07 15:47 -4.62960 -42.60423 36110 ft 449 kts 207°
2026-05-07 15:47 -4.65745 -42.61843 36358 ft 449 kts 207°
2026-05-07 15:48 -4.68525 -42.63261 36605 ft 449 kts 207°
2026-05-07 15:48 -4.71298 -42.64676 36852 ft 448 kts 207°
2026-05-07 15:48 -4.74103 -42.66106 36982 ft 451 kts 207°
2026-05-07 15:49 -4.79751 -42.68988 37009 ft 461 kts 207°
2026-05-07 15:49 -4.85515 -42.71929 37010 ft 469 kts 207°
2026-05-07 15:50 -4.91373 -42.74919 37011 ft 477 kts 207°
2026-05-07 15:50 -4.97337 -42.77963 37012 ft 483 kts 207°
2026-05-07 15:51 -5.03350 -42.81033 37013 ft 488 kts 206°
2026-05-07 15:51 -5.09504 -42.83978 37013 ft 492 kts 205°
2026-05-07 15:52 -5.15749 -42.86875 37013 ft 495 kts 205°
2026-05-07 15:52 -5.22022 -42.89781 37013 ft 498 kts 205°
2026-05-07 15:53 -5.28314 -42.92696 37013 ft 500 kts 205°
2026-05-07 15:53 -5.34632 -42.95624 37012 ft 501 kts 205°
2026-05-07 15:54 -5.40985 -42.98569 37012 ft 502 kts 205°
2026-05-07 15:54 -5.47330 -43.01511 37012 ft 503 kts 205°
2026-05-07 15:55 -5.53686 -43.04458 37012 ft 504 kts 205°
2026-05-07 15:55 -5.60063 -43.07417 37012 ft 504 kts 205°
2026-05-07 15:56 -5.66419 -43.10390 37012 ft 505 kts 205°
2026-05-07 15:56 -5.72730 -43.13474 37012 ft 505 kts 206°
2026-05-07 15:57 -5.79039 -43.16578 37012 ft 505 kts 206°
2026-05-07 15:57 -5.85365 -43.19692 37012 ft 505 kts 206°
2026-05-07 15:58 -5.91676 -43.22800 37012 ft 506 kts 206°
2026-05-07 15:58 -5.97991 -43.25911 37012 ft 506 kts 206°
2026-05-07 15:59 -6.04323 -43.29031 37012 ft 506 kts 206°
2026-05-07 15:59 -6.10635 -43.32143 37012 ft 506 kts 206°
2026-05-07 16:00 -6.16961 -43.35262 37012 ft 506 kts 206°
2026-05-07 16:00 -6.23274 -43.38366 37012 ft 506 kts 206°
2026-05-07 16:01 -6.29623 -43.41454 37012 ft 506 kts 206°
2026-05-07 16:01 -6.35958 -43.44533 37012 ft 506 kts 206°
2026-05-07 16:02 -6.42293 -43.47612 37012 ft 506 kts 206°
2026-05-07 16:02 -6.48652 -43.50703 37012 ft 506 kts 206°
2026-05-07 16:03 -6.54988 -43.53785 37012 ft 506 kts 206°
2026-05-07 16:03 -6.61325 -43.56868 37012 ft 506 kts 206°
2026-05-07 16:04 -6.67653 -43.59947 37012 ft 506 kts 206°
2026-05-07 16:04 -6.74012 -43.63042 37012 ft 506 kts 206°
2026-05-07 16:05 -6.80353 -43.66129 37012 ft 506 kts 206°
2026-05-07 16:05 -6.86689 -43.69215 37012 ft 506 kts 206°
2026-05-07 16:06 -6.93046 -43.72312 37012 ft 506 kts 206°
2026-05-07 16:06 -6.99380 -43.75399 37012 ft 506 kts 206°
2026-05-07 16:07 -7.05722 -43.78491 37012 ft 507 kts 206°
2026-05-07 16:07 -7.12063 -43.81584 37012 ft 507 kts 206°
2026-05-07 16:08 -7.18419 -43.84685 37012 ft 507 kts 206°
2026-05-07 16:08 -7.24754 -43.87776 37012 ft 507 kts 206°
2026-05-07 16:09 -7.31092 -43.90870 37012 ft 507 kts 206°
2026-05-07 16:09 -7.37454 -43.93975 37012 ft 507 kts 206°
2026-05-07 16:10 -7.43787 -43.97067 37012 ft 507 kts 206°
2026-05-07 16:10 -7.50128 -44.00164 37012 ft 507 kts 206°
2026-05-07 16:11 -7.56471 -44.03263 37012 ft 507 kts 206°
2026-05-07 16:11 -7.62828 -44.06370 37012 ft 507 kts 206°
2026-05-07 16:12 -7.69171 -44.09472 37012 ft 507 kts 206°
2026-05-07 16:12 -7.75511 -44.12572 37012 ft 507 kts 206°
2026-05-07 16:13 -7.81912 -44.15579 37009 ft 506 kts 199°
2026-05-07 16:13 -7.88787 -44.16934 37014 ft 505 kts 182°
2026-05-07 16:14 -7.95818 -44.17064 37012 ft 505 kts 179°
2026-05-07 16:14 -8.02824 -44.17071 37012 ft 505 kts 179°
2026-05-07 16:15 -8.09857 -44.17071 37012 ft 505 kts 179°
2026-05-07 16:15 -8.16917 -44.17070 37012 ft 505 kts 179°
2026-05-07 16:16 -8.23939 -44.17070 37003 ft 505 kts 179°
2026-05-07 16:16 -8.30998 -44.17069 37001 ft 506 kts 179°
2026-05-07 16:17 -8.38033 -44.17069 37001 ft 506 kts 179°
2026-05-07 16:17 -8.45065 -44.17069 37001 ft 506 kts 179°
2026-05-07 16:18 -8.52110 -44.17069 37001 ft 506 kts 179°
2026-05-07 16:18 -8.59167 -44.17070 37001 ft 506 kts 179°
2026-05-07 16:19 -8.66210 -44.17071 37001 ft 506 kts 179°
2026-05-07 16:19 -8.73250 -44.17072 37001 ft 506 kts 179°
2026-05-07 16:20 -8.80318 -44.17074 37001 ft 506 kts 179°
2026-05-07 16:20 -8.87347 -44.17078 37001 ft 506 kts 179°
2026-05-07 16:21 -8.94394 -44.17052 36998 ft 506 kts 179°
2026-05-07 16:21 -9.01439 -44.16980 36997 ft 506 kts 179°
2026-05-07 16:22 -9.08498 -44.16904 36997 ft 506 kts 179°
2026-05-07 16:22 -9.15539 -44.16828 36997 ft 506 kts 179°
2026-05-07 16:23 -9.22570 -44.16753 36997 ft 506 kts 179°
2026-05-07 16:23 -9.29643 -44.16679 36997 ft 506 kts 179°
2026-05-07 16:24 -9.36679 -44.16606 36997 ft 506 kts 179°
2026-05-07 16:24 -9.43725 -44.16531 36997 ft 506 kts 179°
2026-05-07 16:25 -9.50777 -44.16452 36997 ft 506 kts 179°
2026-05-07 16:25 -9.57833 -44.16374 36997 ft 506 kts 179°
2026-05-07 16:26 -9.64875 -44.16296 36997 ft 506 kts 179°
2026-05-07 16:26 -9.71906 -44.16219 36997 ft 506 kts 179°
2026-05-07 16:27 -9.78977 -44.16143 37000 ft 506 kts 179°
2026-05-07 16:27 -9.86017 -44.16068 37003 ft 506 kts 179°
2026-05-07 16:28 -9.93065 -44.15989 37003 ft 506 kts 179°
2026-05-07 16:28 -10.00100 -44.15910 37003 ft 506 kts 179°
2026-05-07 16:29 -10.07167 -44.15830 37003 ft 506 kts 179°
2026-05-07 16:29 -10.14217 -44.15751 37003 ft 506 kts 179°
2026-05-07 16:30 -10.21259 -44.15672 37003 ft 506 kts 179°
2026-05-07 16:30 -10.28319 -44.15593 37003 ft 506 kts 179°
2026-05-07 16:31 -10.35370 -44.15516 37003 ft 506 kts 179°
2026-05-07 16:31 -10.42409 -44.15439 37003 ft 506 kts 179°
2026-05-07 16:32 -10.49451 -44.15364 37004 ft 506 kts 179°
2026-05-07 16:32 -10.56520 -44.15284 37004 ft 506 kts 179°
2026-05-07 16:33 -10.63572 -44.15201 37004 ft 506 kts 179°
2026-05-07 16:33 -10.70616 -44.15119 37004 ft 506 kts 179°
2026-05-07 16:34 -10.77680 -44.15038 37004 ft 506 kts 179°
2026-05-07 16:34 -10.84729 -44.14959 37004 ft 506 kts 179°
2026-05-07 16:35 -10.91776 -44.14881 37004 ft 506 kts 179°
2026-05-07 16:35 -10.98819 -44.14804 37004 ft 506 kts 179°
2026-05-07 16:36 -11.05892 -44.14728 37004 ft 506 kts 179°
2026-05-07 16:36 -11.12942 -44.14653 37004 ft 507 kts 179°
2026-05-07 16:37 -11.19992 -44.14573 37004 ft 507 kts 179°
2026-05-07 16:37 -11.27058 -44.14491 37004 ft 507 kts 179°
2026-05-07 16:38 -11.34105 -44.14410 37004 ft 507 kts 179°
2026-05-07 16:38 -11.41153 -44.14329 37004 ft 507 kts 179°
2026-05-07 16:39 -11.48202 -44.14248 37004 ft 507 kts 179°
2026-05-07 16:39 -11.55271 -44.14167 37004 ft 507 kts 179°
2026-05-07 16:40 -11.62324 -44.14086 37004 ft 507 kts 179°
2026-05-07 16:40 -11.69370 -44.14006 37004 ft 507 kts 179°
2026-05-07 16:41 -11.76464 -44.13926 37004 ft 507 kts 179°
2026-05-07 16:41 -11.83494 -44.13847 37004 ft 507 kts 179°
2026-05-07 16:42 -11.90549 -44.13768 37004 ft 507 kts 179°
2026-05-07 16:42 -11.97601 -44.13689 37004 ft 507 kts 179°
2026-05-07 16:43 -12.04677 -44.13612 37004 ft 507 kts 179°
2026-05-07 16:43 -12.11734 -44.13536 37004 ft 507 kts 179°
2026-05-07 16:44 -12.18775 -44.13459 37004 ft 507 kts 179°
2026-05-07 16:44 -12.25852 -44.13374 37004 ft 507 kts 179°
2026-05-07 16:45 -12.32911 -44.13289 37004 ft 507 kts 179°
2026-05-07 16:45 -12.39961 -44.13205 37004 ft 507 kts 179°
2026-05-07 16:46 -12.47017 -44.13122 37004 ft 507 kts 179°
2026-05-07 16:46 -12.54089 -44.13040 37004 ft 507 kts 179°
2026-05-07 16:47 -12.61140 -44.12964 37004 ft 507 kts 179°
2026-05-07 16:47 -12.68196 -44.12921 37004 ft 507 kts 179°
2026-05-07 16:48 -12.75282 -44.12885 37004 ft 507 kts 179°
2026-05-07 16:48 -12.82331 -44.12851 37004 ft 507 kts 179°
2026-05-07 16:49 -12.89386 -44.12820 37004 ft 507 kts 179°
2026-05-07 16:49 -12.96451 -44.12747 37004 ft 507 kts 179°
2026-05-07 16:50 -13.03531 -44.12650 37004 ft 507 kts 178°
2026-05-07 16:50 -13.10589 -44.12552 37004 ft 507 kts 178°
2026-05-07 16:51 -13.17641 -44.12456 37004 ft 507 kts 178°
2026-05-07 16:51 -13.24714 -44.12361 37004 ft 507 kts 179°
2026-05-07 16:52 -13.31778 -44.12269 37004 ft 507 kts 179°
2026-05-07 16:52 -13.38834 -44.12179 37004 ft 507 kts 179°
2026-05-07 16:53 -13.45891 -44.12088 37004 ft 507 kts 179°
2026-05-07 16:53 -13.52970 -44.11998 37004 ft 507 kts 179°
2026-05-07 16:54 -13.60033 -44.11908 37004 ft 507 kts 179°
2026-05-07 16:54 -13.67085 -44.11819 37004 ft 507 kts 179°
2026-05-07 16:55 -13.74172 -44.11729 37004 ft 507 kts 179°
2026-05-07 16:55 -13.81231 -44.11640 37004 ft 508 kts 179°
2026-05-07 16:56 -13.88291 -44.11552 37004 ft 508 kts 179°
2026-05-07 16:56 -13.98907 -44.11420 37004 ft 508 kts 179°
2026-05-07 16:57 -14.05967 -44.11333 37004 ft 508 kts 179°
2026-05-07 16:57 -14.13029 -44.11248 37004 ft 508 kts 179°
2026-05-07 16:58 -14.20091 -44.11165 37004 ft 508 kts 179°
2026-05-07 16:58 -14.27170 -44.11080 37004 ft 508 kts 179°
2026-05-07 16:59 -14.34234 -44.10993 37004 ft 508 kts 179°
2026-05-07 16:59 -14.41298 -44.10905 37004 ft 508 kts 179°
2026-05-07 17:00 -14.48385 -44.10818 37004 ft 508 kts 179°
2026-05-07 17:00 -14.55452 -44.10731 37004 ft 508 kts 179°
2026-05-07 17:01 -14.62507 -44.10645 37004 ft 508 kts 179°
2026-05-07 17:01 -14.69575 -44.10559 37004 ft 508 kts 179°
2026-05-07 17:02 -14.76659 -44.10473 37004 ft 508 kts 179°
2026-05-07 17:02 -14.83725 -44.10388 37004 ft 508 kts 179°
2026-05-07 17:03 -14.90796 -44.10304 37004 ft 508 kts 179°
2026-05-07 17:03 -14.97875 -44.10221 37035 ft 507 kts 179°
2026-05-07 17:04 -15.04926 -44.10140 37090 ft 507 kts 179°
2026-05-07 17:04 -15.11946 -44.10729 37092 ft 508 kts 193°
2026-05-07 17:05 -15.18722 -44.12788 37095 ft 509 kts 198°
2026-05-07 17:05 -15.25479 -44.15081 37096 ft 509 kts 198°
2026-05-07 17:06 -15.32210 -44.17387 37098 ft 510 kts 198°
2026-05-07 17:06 -15.38935 -44.19696 37099 ft 510 kts 198°
2026-05-07 17:07 -15.45653 -44.22103 37101 ft 510 kts 199°
2026-05-07 17:07 -15.52341 -44.24556 37103 ft 510 kts 199°
2026-05-07 17:08 -15.59034 -44.27017 37105 ft 511 kts 199°
2026-05-07 17:08 -15.65720 -44.29477 37107 ft 511 kts 199°
2026-05-07 17:09 -15.72441 -44.31951 37108 ft 511 kts 199°
2026-05-07 17:09 -15.79127 -44.34414 37110 ft 511 kts 199°
2026-05-07 17:10 -15.85811 -44.36879 37112 ft 511 kts 199°
2026-05-07 17:10 -15.92540 -44.39362 37114 ft 511 kts 199°
2026-05-07 17:11 -15.99217 -44.41828 37115 ft 511 kts 199°
2026-05-07 17:11 -16.05911 -44.44302 37117 ft 511 kts 199°
2026-05-07 17:12 -16.12608 -44.46779 37118 ft 511 kts 199°
2026-05-07 17:12 -16.19317 -44.49262 37119 ft 511 kts 199°
2026-05-07 17:13 -16.26013 -44.51742 37120 ft 511 kts 199°
2026-05-07 17:13 -16.32700 -44.54221 37121 ft 511 kts 199°
2026-05-07 17:14 -16.39411 -44.56711 37122 ft 511 kts 199°
2026-05-07 17:14 -16.46103 -44.59196 37122 ft 511 kts 199°
2026-05-07 17:15 -16.52794 -44.61683 37123 ft 511 kts 199°
2026-05-07 17:15 -16.59490 -44.64174 37123 ft 511 kts 199°
2026-05-07 17:16 -16.66205 -44.66674 37122 ft 511 kts 199°
2026-05-07 17:16 -16.72893 -44.69166 37122 ft 511 kts 199°
2026-05-07 17:17 -16.79581 -44.71662 37121 ft 511 kts 199°
2026-05-07 17:17 -16.86209 -44.74417 37121 ft 511 kts 205°
2026-05-07 17:18 -16.92596 -44.77658 37120 ft 512 kts 206°
2026-05-07 17:18 -16.98966 -44.80956 37118 ft 512 kts 206°
2026-05-07 17:19 -17.05329 -44.84257 37117 ft 512 kts 206°
2026-05-07 17:19 -17.11714 -44.87572 37116 ft 512 kts 206°
2026-05-07 17:20 -17.18087 -44.90884 37114 ft 512 kts 206°
2026-05-07 17:20 -17.24461 -44.94198 37113 ft 512 kts 206°
2026-05-07 17:21 -17.30837 -44.97518 37112 ft 512 kts 206°
2026-05-07 17:21 -17.37197 -45.00832 37110 ft 512 kts 206°
2026-05-07 17:22 -17.43510 -45.04244 37109 ft 512 kts 207°
2026-05-07 17:22 -17.49808 -45.07704 37108 ft 512 kts 207°
2026-05-07 17:23 -17.56124 -45.11181 37107 ft 512 kts 207°
2026-05-07 17:23 -17.62422 -45.14651 37105 ft 512 kts 207°
2026-05-07 17:24 -17.68756 -45.18038 37104 ft 512 kts 206°
2026-05-07 17:24 -17.75150 -45.21364 37103 ft 512 kts 206°
2026-05-07 17:25 -17.81523 -45.24675 37102 ft 512 kts 206°
2026-05-07 17:25 -17.87885 -45.27983 37101 ft 512 kts 206°
2026-05-07 17:26 -17.94260 -45.31301 37100 ft 512 kts 206°
2026-05-07 17:26 -18.00651 -45.34631 37098 ft 512 kts 206°
2026-05-07 17:27 -18.07022 -45.37948 37097 ft 512 kts 206°
2026-05-07 17:27 -18.13392 -45.41264 37090 ft 512 kts 206°
2026-05-07 17:28 -18.19808 -45.44606 37030 ft 513 kts 206°
2026-05-07 17:28 -18.26193 -45.47935 37003 ft 513 kts 206°
2026-05-07 17:29 -18.32580 -45.51268 37001 ft 513 kts 206°
2026-05-07 17:29 -18.38972 -45.54607 36958 ft 514 kts 206°
2026-05-07 17:30 -18.45338 -45.58045 36948 ft 514 kts 208°
2026-05-07 17:30 -18.51630 -45.61573 36947 ft 513 kts 208°
2026-05-07 17:31 -18.57917 -45.65112 36947 ft 513 kts 208°
2026-05-07 17:31 -18.64222 -45.68665 36947 ft 513 kts 208°
2026-05-07 17:32 -18.70505 -45.72209 36947 ft 513 kts 208°
2026-05-07 17:32 -18.75729 -45.75159 36947 ft 513 kts 208°
2026-05-07 17:33 -18.83062 -45.79306 36947 ft 513 kts 208°
2026-05-07 17:33 -18.89358 -45.82876 36947 ft 513 kts 208°
2026-05-07 17:34 -18.95635 -45.86440 36947 ft 513 kts 208°
2026-05-07 17:34 -19.01904 -45.90003 36947 ft 513 kts 208°
2026-05-07 17:35 -19.08193 -45.93580 36947 ft 513 kts 208°
2026-05-07 17:35 -19.14464 -45.97151 36947 ft 513 kts 208°
2026-05-07 17:36 -19.20735 -46.00722 36947 ft 513 kts 208°
2026-05-07 17:36 -19.27005 -46.04294 36947 ft 513 kts 208°
2026-05-07 17:37 -19.33299 -46.07882 36947 ft 513 kts 208°
2026-05-07 17:37 -19.39572 -46.11463 36947 ft 513 kts 208°
2026-05-07 17:38 -19.45831 -46.15039 36947 ft 513 kts 208°
2026-05-07 17:38 -19.52124 -46.18638 36947 ft 513 kts 208°
2026-05-07 17:39 -19.58389 -46.22224 36947 ft 513 kts 208°
2026-05-07 17:39 -19.64637 -46.25804 36947 ft 513 kts 208°
2026-05-07 17:40 -19.70927 -46.29412 36948 ft 513 kts 208°
2026-05-07 17:40 -19.77214 -46.33021 36948 ft 513 kts 208°
2026-05-07 17:41 -19.83480 -46.36621 36948 ft 513 kts 208°
2026-05-07 17:41 -19.89732 -46.40216 36997 ft 512 kts 208°
2026-05-07 17:42 -19.96016 -46.43833 37003 ft 512 kts 208°
2026-05-07 17:42 -20.02276 -46.47439 37003 ft 513 kts 208°
2026-05-07 17:43 -20.08532 -46.51047 37003 ft 513 kts 208°
2026-05-07 17:43 -20.14797 -46.54662 37003 ft 513 kts 208°
2026-05-07 17:44 -20.21088 -46.58297 37003 ft 513 kts 208°
2026-05-07 17:44 -20.27353 -46.61920 37003 ft 513 kts 208°
2026-05-07 17:45 -20.33619 -46.65547 37003 ft 514 kts 208°
2026-05-07 17:45 -20.39901 -46.69187 37003 ft 514 kts 208°
2026-05-07 17:46 -20.46163 -46.72819 37003 ft 514 kts 208°
2026-05-07 17:46 -20.52434 -46.76460 37003 ft 514 kts 208°
2026-05-07 17:47 -20.58693 -46.80098 37003 ft 514 kts 208°
2026-05-07 17:47 -20.64983 -46.83757 37016 ft 513 kts 208°
2026-05-07 17:48 -20.71359 -46.87118 37023 ft 513 kts 199°
2026-05-07 17:48 -20.78312 -46.88590 37024 ft 511 kts 181°
2026-05-07 17:49 -20.85408 -46.88098 37025 ft 510 kts 172°
2026-05-07 17:49 -20.92438 -46.87131 37024 ft 510 kts 172°
2026-05-07 17:50 -20.99477 -46.86131 37023 ft 511 kts 172°
2026-05-07 17:50 -21.06514 -46.85129 37091 ft 509 kts 172°
2026-05-07 17:51 -21.13539 -46.84128 37202 ft 508 kts 172°
2026-05-07 17:51 -21.20549 -46.83129 37206 ft 510 kts 172°
2026-05-07 17:52 -21.27574 -46.82126 37207 ft 510 kts 172°
2026-05-07 17:52 -21.34635 -46.81118 37207 ft 511 kts 172°
2026-05-07 17:53 -21.41677 -46.80112 37207 ft 511 kts 172°
2026-05-07 17:53 -21.48735 -46.79103 37207 ft 512 kts 172°
2026-05-07 17:54 -21.55782 -46.78095 37206 ft 512 kts 172°
2026-05-07 17:54 -21.62865 -46.77082 37205 ft 512 kts 172°
2026-05-07 17:55 -21.69913 -46.76073 37204 ft 512 kts 172°
2026-05-07 17:55 -21.76972 -46.75062 37202 ft 512 kts 172°
2026-05-07 17:56 -21.84056 -46.74047 37232 ft 512 kts 172°
2026-05-07 17:56 -21.91109 -46.73063 37264 ft 512 kts 174°
2026-05-07 17:57 -21.97011 -46.73291 37265 ft 513 kts 189°
2026-05-07 17:57 -22.04995 -46.75818 37264 ft 514 kts 199°
2026-05-07 17:58 -22.11721 -46.78465 37263 ft 514 kts 200°
2026-05-07 17:58 -22.18410 -46.81126 37261 ft 515 kts 200°
2026-05-07 17:59 -22.25135 -46.83806 37260 ft 515 kts 200°
2026-05-07 17:59 -22.31872 -46.86494 37259 ft 515 kts 200°
2026-05-07 18:00 -22.38575 -46.89171 37290 ft 515 kts 200°
2026-05-07 18:00 -22.45282 -46.91853 37294 ft 515 kts 200°
2026-05-07 18:01 -22.51991 -46.94540 37247 ft 516 kts 200°
2026-05-07 18:01 -22.58732 -46.97242 37240 ft 516 kts 200°
2026-05-07 18:02 -22.68748 -47.01264 36563 ft 511 kts 200°
2026-05-07 18:02 -22.72055 -47.02594 35942 ft 505 kts 200°
2026-05-07 18:03 -22.75298 -47.03899 35323 ft 498 kts 200°
2026-05-07 18:03 -22.78571 -47.05217 34691 ft 493 kts 200°
2026-05-07 18:03 -22.81674 -47.06730 34062 ft 489 kts 210°
2026-05-07 18:03 -22.84429 -47.08854 33441 ft 485 kts 220°
2026-05-07 18:04 -22.87003 -47.11170 32816 ft 481 kts 215°
2026-05-07 18:04 -22.89887 -47.12934 32194 ft 476 kts 202°
2026-05-07 18:04 -22.93026 -47.13990 31575 ft 471 kts 192°
2026-05-07 18:04 -22.96232 -47.14643 30954 ft 467 kts 188°
2026-05-07 18:05 -22.99447 -47.15164 30327 ft 462 kts 187°
2026-05-07 18:05 -23.02632 -47.15320 29700 ft 457 kts 175°
2026-05-07 18:05 -23.05759 -47.14864 29082 ft 453 kts 169°
2026-05-07 18:05 -23.08839 -47.14229 28459 ft 448 kts 168°
2026-05-07 18:06 -23.11879 -47.13558 27836 ft 444 kts 167°
2026-05-07 18:06 -23.14895 -47.12883 27212 ft 440 kts 167°
2026-05-07 18:06 -23.17876 -47.12212 26590 ft 436 kts 167°
2026-05-07 18:06 -23.20851 -47.11543 25963 ft 433 kts 167°
2026-05-07 18:07 -23.23783 -47.10888 25340 ft 429 kts 167°
2026-05-07 18:07 -23.26691 -47.10246 24717 ft 425 kts 167°
2026-05-07 18:07 -23.29577 -47.09611 24094 ft 421 kts 167°
2026-05-07 18:07 -23.32430 -47.08985 23472 ft 418 kts 167°
2026-05-07 18:08 -23.35272 -47.08361 22847 ft 414 kts 167°
2026-05-07 18:08 -23.38058 -47.07698 22221 ft 409 kts 161°
2026-05-07 18:08 -23.40619 -47.06380 21592 ft 403 kts 144°
2026-05-07 18:08 -23.42660 -47.04341 20970 ft 398 kts 128°
2026-05-07 18:09 -23.44315 -47.01961 20350 ft 393 kts 124°
2026-05-07 18:09 -23.45876 -46.99541 19726 ft 390 kts 123°
2026-05-07 18:09 -23.47405 -46.97138 19104 ft 386 kts 123°
2026-05-07 18:09 -23.48922 -46.94749 18481 ft 383 kts 123°
2026-05-07 18:10 -23.50426 -46.92379 17857 ft 379 kts 123°
2026-05-07 18:10 -23.51928 -46.90014 17229 ft 376 kts 123°
2026-05-07 18:10 -23.53404 -46.87691 16606 ft 373 kts 123°
2026-05-07 18:10 -23.54870 -46.85386 15983 ft 370 kts 123°
2026-05-07 18:11 -23.56496 -46.83244 15355 ft 368 kts 137°
2026-05-07 18:11 -23.57827 -46.82100 14945 ft 367 kts 143°
2026-05-07 18:11 -23.60626 -46.80022 14116 ft 364 kts 145°
2026-05-07 18:11 -23.62729 -46.78522 13493 ft 360 kts 145°
2026-05-07 18:12 -23.64845 -46.77036 12875 ft 356 kts 146°
2026-05-07 18:12 -23.66877 -46.75624 12773 ft 337 kts 146°
2026-05-07 18:12 -23.68788 -46.74298 12731 ft 317 kts 146°
2026-05-07 18:12 -23.70603 -46.73039 12550 ft 304 kts 146°
2026-05-07 18:13 -23.72372 -46.71811 12133 ft 300 kts 146°
2026-05-07 18:13 -23.74128 -46.70590 11664 ft 299 kts 146°
2026-05-07 18:13 -23.75875 -46.69376 11191 ft 297 kts 146°
2026-05-07 18:13 -23.77618 -46.68165 10714 ft 295 kts 146°
2026-05-07 18:14 -23.79340 -46.66968 10240 ft 293 kts 146°
2026-05-07 18:14 -23.81040 -46.65788 9966 ft 283 kts 146°
2026-05-07 18:14 -23.82398 -46.64446 9954 ft 249 kts 121°
2026-05-07 18:14 -23.82890 -46.62818 9903 ft 212 kts 91°
2026-05-07 18:15 -23.82531 -46.61337 9401 ft 202 kts 57°
2026-05-07 18:15 -23.81662 -46.60155 8843 ft 199 kts 49°
2026-05-07 18:15 -23.81132 -46.58781 8233 ft 200 kts 84°
2026-05-07 18:15 -23.81474 -46.57336 7642 ft 203 kts 120°
2026-05-07 18:16 -23.82441 -46.56216 7068 ft 202 kts 129°
2026-05-07 18:16 -23.82947 -46.54850 6470 ft 195 kts 91°
2026-05-07 18:16 -23.82569 -46.53479 5887 ft 191 kts 53°
2026-05-07 18:16 -23.81494 -46.52698 5309 ft 190 kts 15°
2026-05-07 18:17 -23.80202 -46.52844 4737 ft 192 kts 336°
2026-05-07 18:17 -23.79208 -46.53820 4457 ft 195 kts 314°
2026-05-07 18:17 -23.78238 -46.54864 4409 ft 196 kts 321°
2026-05-07 18:17 -23.77165 -46.55769 4401 ft 193 kts 327°
2026-05-07 18:18 -23.76134 -46.56531 4372 ft 165 kts 329°
2026-05-07 18:18 -23.75222 -46.57166 4368 ft 149 kts 331°
2026-05-07 18:18 -23.74384 -46.57739 4375 ft 141 kts 331°
2026-05-07 18:18 -23.73558 -46.58298 4394 ft 140 kts 331°
2026-05-07 18:19 -23.72726 -46.58861 4399 ft 140 kts 331°
2026-05-07 18:19 -23.71898 -46.59421 4399 ft 140 kts 331°
2026-05-07 18:19 -23.71072 -46.59979 4399 ft 140 kts 331°
2026-05-07 18:19 -23.70241 -46.60541 4345 ft 141 kts 331°
2026-05-07 18:20 -23.69421 -46.61095 4145 ft 138 kts 331°
2026-05-07 18:20 -23.68600 -46.61650 3948 ft 140 kts 331°
2026-05-07 18:20 -23.67772 -46.62209 3750 ft 140 kts 331°
2026-05-07 18:20 -23.66939 -46.62771 3551 ft 140 kts 331°
2026-05-07 18:21 -23.66112 -46.63330 3352 ft 140 kts 331°
2026-05-07 18:21 -23.65286 -46.63888 3152 ft 140 kts 331°
2026-05-07 18:21 -23.64456 -46.64448 2955 ft 140 kts 331°
2026-05-07 18:21 -23.63634 -46.65003 2749 ft 135 kts 331°
2026-05-07 18:22 -23.62897 -46.65491 2637 ft 108 kts 328°
2026-05-07 18:22 -23.62532 -46.65747 2624 ft 69 kts 329°
2026-05-07 18:22 -23.62310 -46.65895 2613 ft 15 kts 329°
2026-05-07 18:22 -23.62232 -46.65948 2609 ft 12 kts 324°
2026-05-07 18:23 -23.62199 -46.66012 2606 ft 9 kts 260°
2026-05-07 18:23 -23.62229 -46.66053 2605 ft 5 kts 196°
2026-05-07 18:23 -23.62248 -46.66049 2606 ft 2 kts 146°
2026-05-07 18:23 -23.62252 -46.66046 2606 ft 0 kts 146°
2026-05-07 18:24 -23.62253 -46.66045 2606 ft 1 kts 146°
2026-05-07 18:24 -23.62270 -46.66033 2607 ft 5 kts 146°
2026-05-07 18:24 -23.62313 -46.66002 2610 ft 10 kts 147°
2026-05-07 18:25 -23.62381 -46.65953 2614 ft 14 kts 146°
2026-05-07 18:25 -23.62475 -46.65887 2618 ft 16 kts 146°
2026-05-07 18:25 -23.62552 -46.65833 2622 ft 8 kts 150°
2026-05-07 18:25 -23.62603 -46.65849 2623 ft 9 kts 208°
2026-05-07 18:26 -23.62627 -46.65886 2622 ft 5 kts 240°
2026-05-07 18:26 -23.62633 -46.65896 2622 ft 0 kts 238°